Regional Weather Roundup
Issued by NWS

Home | Current Version | Previous Version | Text Only | Print | Product List | Glossary Off
Versions: 1 2 3 4 5 6 7 8 9 10 11 12 13 14 15 16 17 18 19 20 21 22 23 24 25 26 27 28 29 30 31 32 33 34 35 36 37 38 39 40 41 42 43 44 45 46 47 48 49 50

433
ASUS43 KMPX 241210
RWRMN
WEATHER ROUNDUP FOR MINNESOTA
NATIONAL WEATHER SERVICE TWIN CITIES/CHANHASSEN MN
600 AM CST FRI NOV 24 2017


NOTE: "FAIR" INDICATES FEW OR NO CLOUDS BELOW 12,000 FEET WITH NO
SIGNIFICANT WEATHER AND/OR OBSTRUCTIONS TO VISIBILITY. N/A MEANS
CURRENT SKY AND/OR WEATHER CONDITIONS ARE NOT AVAILABLE.

MNZ060>063-068>070-241300-
   Twin Cities Metro

CITY           SKY/WX    TMP DP  RH WIND       PRES   REMARKS
TWIN CITIES    PTCLDY    48  39  71 S9        29.39F
6HR MIN TEMP:  46; 6HR MAX TEMP:  49;

ST PAUL        CLEAR     40  36  86 SE6       29.41F
CRYSTAL        CLEAR     45  35  68 S9        29.37F
BLAINE         CLEAR     48  39  71 S13       29.37F
LAKEVILLE      CLOUDY    46  37  71 S6        29.41F
EDEN PRAIRIE   CLOUDY    46  37  71 S10       29.39F
6HR MIN TEMP:  44; 6HR MAX TEMP:  48;

SOUTH ST PAUL  CLEAR     44  36  73 S5        29.40F
LAKE ELMO      FAIR      43  37  81 S13       29.41F
$$
MNZ001>005-007-008-013>017-022>024-027-028-241300-
   Northwest Minnesota

CITY           SKY/WX    TMP DP  RH WIND       PRES   REMARKS
BEMIDJI        CLEAR     40  36  85 SW7       29.25S
HALLOCK        CLOUDY    37  36  93 N8        29.25F
ROSEAU         CLOUDY    39  36  87 W8        29.23R
WARROAD        CLOUDY    39  36  87 W10G16    29.25R
THIEF RVR FALL CLOUDY    39  35  86 W7        29.28R
CROOKSTON      CLOUDY    39  37  93 W7        29.29R
FOSSTON        DRIZZLE   37  34  87 SW7       29.29R
DETROIT LAKES  CLOUDY    43  36  75 CALM      29.29F
MOORHEAD       CLOUDY    37  34  87 CALM      29.31R
PARK RAPIDS    CLOUDY    39  36  89 SW7       29.28S
MAHNOMEN       CLOUDY    41  36  82 SW7       29.29R
$$
MNZ006-009>011-018-025>026-241300-
   North Central Minnesota

CITY           SKY/WX    TMP DP  RH WIND       PRES   REMARKS
BAUDETTE       CLOUDY    42  36  79 W9        29.19S
FLAG ISLAND    CLOUDY    39  34  81 NW18      29.21R
INTL FALLS     CLOUDY    43  35  73 W7        29.19R
6HR MIN TEMP:  39; 6HR MAX TEMP:  44;

WASKISH        MOCLDY    43  37  81 SW10      29.22S
BIG FORK       CLOUDY    37  36  93 CALM      29.22F
LONGVILLE      CLOUDY    43  37  81 CALM      29.28S
GRAND RAPIDS   CLOUDY    40  35  83 S7        29.27F
CRANE LAKE     PTCLDY    39  36  87 S6        29.21S
ORR            CLOUDY    39  34  81 CALM      29.19R
COOK           CLOUDY    43  36  75 W6        29.22F
WALKER         PTSUNNY   43  36  74 SW9       29.25F
$$
MNZ012-019>021-037-241300-
   Northeast Minnesota

CITY           SKY/WX    TMP DP  RH WIND       PRES   REMARKS
DULUTH         CLOUDY    39  34  82 W16       29.28S
6HR MIN TEMP:  38; 6HR MAX TEMP:  40;

ELY            LGT RAIN  39  34  81 SW9       29.23R
HIBBING        CLOUDY    38  33  82 CALM      29.26F
EVELETH        PTCLDY    37  31  78 W5        29.27S
DULUTH HARBOR  CLOUDY    41  36  81 W5        29.31S
TWO HARBORS    CLOUDY    39  34  81 SW6       29.26F
SILVER BAY     CLOUDY    37  34  87 SW5       29.24F
GRAND MARAIS     N/A     39  31  72 W5        29.23F
G MARAIS ARPRT CLOUDY    32  27  80 SW3       29.21F
$$
MNZ029>031-032-039>041-046>048-054>057-064-241300-
   West Central Minnesota

CITY           SKY/WX    TMP DP  RH WIND       PRES   REMARKS
FERGUS FALLS   CLOUDY    39  36  87 S5        29.34R
WHEATON        PTCLDY    50  36  57 W9        29.34S
MORRIS         PTCLDY    45  37  76 SW5       29.33R
ALEXANDRIA     CLEAR     43  36  76 SW9       29.33S
ELBOW LAKE     MOCLDY    38  35  88 S7        29.34R
WADENA         MOCLDY    45  37  76 W9        29.30S
GLENWOOD       CLEAR     37  36  93 SW10      29.33F
APPLETON       CLEAR     45  36  70 SW7       29.32F
BENSON         CLEAR     32  28  86 CALM      29.35F
ORTONVILLE     PTCLDY    48  37  66 W6        29.33F
MADISON        CLEAR     52  39  62 W8        29.34F
WILLMAR        FAIR      36  34  93 SE5       29.36F
$$
MNZ033>034-036-042>043-049>051-058-059-241300-
   Central Minnesota

CITY           SKY/WX    TMP DP  RH WIND       PRES   REMARKS
ST CLOUD       PTCLDY    38  35  89 S6        29.33F
6HR MIN TEMP:  36; 6HR MAX TEMP:  40;

SAUK CENTRE    FAIR      40  36  84 S6        29.32F
PAYNESVILLE    PTCLDY    42  38  83 SW3       29.35F
AITKIN         PTCLDY    39  34  81 CALM      29.28S
PINE RIVER     CLOUDY    32  30  93 CALM      29.33F
BRAINERD       CLEAR     39  34  82 SW8       29.30F
STAPLES        CLOUDY    43  36  75 W7        29.31R
LONG PRAIRIE   FAIR      37  34  87 S7        29.31F
LITTLE FALLS   CLEAR     36  30  80 SE5       29.32S
LITCHFIELD     CLEAR     43  37  81 CALM      29.36F
BUFFALO        CLEAR     41  35  79 S7        29.38F
MAPLE LAKE     CLEAR     40  37  86 S6        29.37F
HUTCHINSON     CLOUDY    38  36  90 CALM      29.38F
$$
MNZ037-044-045-052-053-241300-
   East Central Minnesota

CITY           SKY/WX    TMP DP  RH WIND       PRES   REMARKS
PRINCETON      CLEAR     43  36  75 S7        29.34F
MORA           CLEAR     34  32  93 S3        29.34F
CAMBRIDGE      CLEAR     43  34  70 S6        29.35F
RUSH CITY      CLEAR     39  33  81 S6        29.35F
MOOSE LAKE     CLEAR     36  32  87 S8        29.29F
HINCKLEY       FAIR      36  34  93 NW5       29.34F
CLOQUET        CLOUDY    39  32  75 SW8G16    29.30S
MCGREGOR       CLOUDY    41  36  81 SW6       29.29F
$$
MNZ071>073-080-081-089-090-097-098-241300-
   Southwest Minnesota

CITY           SKY/WX    TMP DP  RH WIND       PRES   REMARKS
MONTEVIDEO     CLEAR     45  37  76 W9        29.34F
GRANITE FALLS  CLEAR     45  39  79 S12       29.37F
CANBY          CLEAR     53  39  58 SW15G21   29.36F
MARSHALL       CLEAR     51  40  65 SW20      29.37F
REDWOOD FALLS  CLEAR     45  37  73 SW13      29.37F
OLIVIA         CLEAR     41  36  81 S8        29.36F
PIPESTONE      CLEAR     37  34  87 CALM      29.42F
WINDOM         CLEAR     45  30  57 S10       29.43F
WORTHINGTON    CLEAR     46  38  73 SW16      29.43F
JACKSON        CLEAR     43  36  75 CALM      29.45F
SLAYTON        CLEAR     44  38  80 SW10      29.42F
$$
MNZ065>067-074>077-082>085-091>093-241300-
   South Central Minnesota

CITY           SKY/WX    TMP DP  RH WIND       PRES   REMARKS
MANKATO        CLEAR     43  37  79 S12       29.43F
NEW ULM        CLEAR     39  34  81 CALM      29.40F
ST JAMES       CLEAR     45  37  76 S13       29.42F
FAIRMONT       CLEAR     42  36  79 S14       29.44F
GLENCOE        CLEAR     42  37  84 S8        29.38F
FARIBAULT      CLEAR     43  37  81 S8        29.45F
OWATONNA       CLEAR     45  37  76 S14       29.45F
WASECA         CLEAR     43  36  75 S12       29.46F
ALBERT LEA     CLEAR     48  36  61 S12       29.47F
$$
MNZ078>079-086>088-094>096-241300-
   Southeast Minnesota

CITY           SKY/WX    TMP DP  RH WIND       PRES   REMARKS
ROCHESTER      CLEAR     43  35  73 S18       29.48F
6HR MIN TEMP:  43; 6HR MAX TEMP:  44;

RED WING       CLEAR     43  34  70 SE3       29.44F
STANTON        PTCLDY    46  37  72 S3        29.42F
DODGE CENTER   CLEAR     43  36  75 S17       29.46F
WINONA         CLEAR     48  36  61 SW5       29.51F
AUSTIN         CLEAR     39  34  81 S9        29.49F
PRESTON        CLEAR     44  34  68 SW13G21   29.51F
$$
ABBREVIATIONS USED IN REMARKS
   TC - TEMPERATURES IN CELSIUS
  WCI - WIND CHILL INDEX
   HX - HEAT INDEX
  VSB - VISIBILITY
$$




USA.gov is the U.S. government's official web portal to all federal, state and local government web resources and services.